Starlink 5554

operational
NORAD ID: 56338 Int'l Des: 2023-058 Owner: SPXS Country: US Constellation: starlink
LEOCIRCULARRETROGRADESSO

关于 Starlink 5554

正在加载描述...

实时位置

正在加载3D地球...

即将过境

高度历史

Altitude vs Time

uPlot chart will show altitude changes over time

两行轨道根数

1 56338U 23058X 25306.47657517 .00000565 00000-0 48513-4 0 9992
2 56338 97.6025 305.6632 0003308 75.1759 284.9831 15.01258993139044
Epoch: Nov 2, 2025 • Age: 22 hours

当前状态

高度 589.8 km
速度 7.56 km/s
星下点 -64.19°S, 72.09°W
发射日期 Apr 27, 2023
运行时间 2.5 years
类型 internet

技术详情

分类 Payload
质量 300.00 kg
干质量 260.00 kg
总质量 300.00 kg
长度 0.20 m
直径 2.80 m
跨度 9.00 m
形状 Box + pan
制造商 SPXS
平台类型 Starlink
阶段状态 In Orbit
所有者/国家 SPXS/US

大型星座

Loading constellations...